Date String (YYYY-MM-DD hh:mm:ss) UTC,Instrument flags,Ambient pressure (hPa),Sample flow (lpm),Bypass flow (lpm),Sample temperature (°C),Ambient temperature (°C),ASC tube jacket temperature (°C),LED temperature (°C),Box temperature (°C),Sample RH (%),Span deviation,Mass concentration (μg/m³),Mass concentration (μg/m³),Mass concentration (μg/m³)
DateTimeUTC,F1_M11,P_M11,Q1_M11,Q2_M11,T1_M11,T2_M11,T3_M11,T4_M11,T5_M11,U1_M11,ZSPAN_M11,X0_M11,X2_M11,X1_M11
2022-12-10 20:00:00,,0824.6,4.99,0.00,25.2,24.1,00.0,33.9,27.1,07.0,0000.0,0009.40,0004.28,0003.59
2022-12-10 20:01:00,,0824.4,4.99,0.00,25.2,24.1,00.0,33.9,27.1,07.1,0000.0,0010.27,0004.34,0003.61
2022-12-10 20:02:00,,0824.5,5.00,0.00,25.2,24.1,00.0,33.9,27.1,07.1,0000.0,0010.24,0004.31,0003.60
2022-12-10 20:03:00,,0824.4,5.02,0.00,25.2,24.1,00.0,33.9,27.1,07.0,0000.0,0010.23,0004.29,0003.57
2022-12-10 20:04:00,,0824.7,5.01,0.00,25.2,24.1,00.0,33.9,27.2,06.9,0000.0,0010.16,0004.23,0003.56
2022-12-10 20:05:00,,0824.6,4.98,0.00,25.3,24.2,00.0,34.0,27.2,06.8,0000.0,0010.01,0004.18,0003.54
2022-12-10 20:06:00,,0824.5,4.99,0.00,25.3,24.2,00.0,34.0,27.2,06.8,0000.0,0010.03,0004.17,0003.54
2022-12-10 20:07:00,,0824.4,5.01,0.00,25.3,24.2,00.0,34.0,27.2,06.9,0000.0,0010.14,0004.16,0003.54
2022-12-10 20:08:00,,0824.4,5.01,0.00,25.3,24.2,00.0,34.0,27.2,06.8,0000.0,0010.71,0004.15,0003.54
2022-12-10 20:09:00,,0824.5,5.00,0.00,25.3,24.2,00.0,34.0,27.2,06.9,0000.0,0010.66,0004.13,0003.54
2022-12-10 20:10:00,,0824.4,4.98,0.00,25.3,24.2,00.0,34.0,27.3,07.0,0000.0,0010.23,0004.12,0003.54
2022-12-10 20:11:00,,0824.4,5.01,0.00,25.4,24.3,00.0,34.0,27.3,06.9,0000.0,0010.14,0004.11,0003.55
2022-12-10 20:12:00,,0824.4,5.01,0.00,25.4,24.3,00.0,34.0,27.3,06.8,0000.0,0009.17,0004.07,0003.56
2022-12-10 20:13:00,,0824.3,4.99,0.00,25.4,24.3,00.0,34.1,27.3,06.9,0000.0,0009.03,0004.08,0003.57
2022-12-10 20:14:00,,0824.3,4.99,0.00,25.4,24.3,00.0,34.1,27.3,07.0,0000.0,0008.94,0004.09,0003.59
2022-12-10 20:15:00,,0824.4,5.00,0.00,25.4,24.4,00.0,34.1,27.3,07.0,0000.0,0009.20,0004.12,0003.60
2022-12-10 20:16:00,,0824.4,5.01,0.00,25.4,24.4,00.0,34.1,27.4,06.9,0000.0,0010.10,0004.16,0003.62
2022-12-10 20:17:00,,0824.3,5.01,0.00,25.5,24.4,00.0,34.1,27.4,07.0,0000.0,0010.25,0004.17,0003.63
2022-12-10 20:18:00,,0824.3,5.01,0.00,25.5,24.4,00.0,34.2,27.4,07.0,0000.0,0010.48,0004.17,0003.62
2022-12-10 20:19:00,,0824.4,5.00,0.00,25.5,24.5,00.0,34.2,27.4,06.9,0000.0,0009.96,0004.18,0003.62
2022-12-10 20:20:00,,0824.3,4.99,0.00,25.5,24.5,00.0,34.2,27.4,06.8,0000.0,0009.37,0004.17,0003.61
2022-12-10 20:21:00,,0824.3,4.99,0.00,25.5,24.5,00.0,34.2,27.4,06.8,0000.0,0009.29,0004.16,0003.60
2022-12-10 20:22:00,,0824.4,4.99,0.00,25.6,24.5,00.0,34.2,27.5,06.5,0000.0,0009.28,0004.14,0003.57
2022-12-10 20:23:00,,0824.2,5.00,0.00,25.6,24.5,00.0,34.2,27.5,06.3,0000.0,0009.34,0004.12,0003.53
2022-12-10 20:24:00,,0824.2,5.01,0.00,25.6,24.5,00.0,34.3,27.5,06.4,0000.0,0009.34,0004.09,0003.50
2022-12-10 20:25:00,,0824.2,5.01,0.00,25.6,24.5,00.0,34.3,27.5,06.4,0000.0,0009.45,0004.07,0003.48
2022-12-10 20:26:00,,0824.3,5.00,0.00,25.6,24.5,00.0,34.3,27.5,06.5,0000.0,0009.29,0004.04,0003.46
2022-12-10 20:27:00,,0824.2,4.99,0.00,25.6,24.6,00.0,34.3,27.5,06.5,0000.0,0008.29,0003.98,0003.44
2022-12-10 20:28:00,,0824.1,4.99,0.00,25.7,24.6,00.0,34.3,27.5,06.5,0000.0,0008.18,0003.95,0003.41
2022-12-10 20:29:00,,0824.1,5.01,0.00,25.7,24.6,00.0,34.4,27.5,06.5,0000.0,0008.08,0003.92,0003.39
2022-12-10 20:30:00,,0824.1,5.02,0.00,25.7,24.6,00.0,34.4,27.6,06.4,0000.0,0007.85,0003.86,0003.38
2022-12-10 20:31:00,,0824.1,5.00,0.00,25.7,24.6,00.0,34.4,27.6,06.4,0000.0,0008.29,0003.81,0003.35
2022-12-10 20:32:00,,0824.1,5.00,0.00,25.7,24.6,00.0,34.4,27.6,06.2,0000.0,0008.19,0003.77,0003.32
2022-12-10 20:33:00,,0824.1,4.99,0.00,25.7,24.6,00.0,34.4,27.6,06.2,0000.0,0008.40,0003.76,0003.30
2022-12-10 20:34:00,,0824.1,4.99,0.00,25.7,24.6,00.0,34.4,27.6,06.2,0000.0,0008.73,0003.79,0003.32
2022-12-10 20:35:00,,0824.1,5.00,0.00,25.7,24.6,00.0,34.5,27.6,06.3,0000.0,0009.02,0003.80,0003.32
2022-12-10 20:36:00,,0824.0,5.00,0.00,25.8,24.7,00.0,34.5,27.6,06.2,0000.0,0008.85,0003.76,0003.31
2022-12-10 20:37:00,,0824.0,5.01,0.00,25.8,24.7,00.0,34.5,27.6,06.2,0000.0,0008.82,0003.76,0003.30
2022-12-10 20:38:00,,0824.1,5.01,0.00,25.8,24.7,00.0,34.5,27.7,06.2,0000.0,0009.05,0003.80,0003.30
2022-12-10 20:39:00,,0824.1,5.02,0.00,25.8,24.7,00.0,34.5,27.7,06.0,0000.0,0009.00,0003.76,0003.26
2022-12-10 20:40:00,,0824.1,5.00,0.00,25.8,24.7,00.0,34.5,27.7,05.9,0000.0,0009.06,0003.71,0003.21
2022-12-10 20:41:00,,0824.1,4.99,0.00,25.8,24.7,00.0,34.6,27.7,05.8,0000.0,0009.30,0003.68,0003.17
2022-12-10 20:42:00,,0824.1,4.99,0.00,25.9,24.7,00.0,34.6,27.8,05.9,0000.0,0008.84,0003.66,0003.14
2022-12-10 20:43:00,,0824.1,5.00,0.00,25.9,24.7,00.0,34.6,27.8,06.0,0000.0,0008.82,0003.64,0003.13
2022-12-10 20:44:00,,0824.1,5.01,0.00,25.9,24.8,00.0,34.6,27.8,06.1,0000.0,0008.67,0003.62,0003.12
2022-12-10 20:45:00,,0824.1,5.01,0.00,25.9,24.8,00.0,34.6,27.8,06.0,0000.0,0008.37,0003.58,0003.09
2022-12-10 20:46:00,,0824.1,5.01,0.00,25.9,24.8,00.0,34.6,27.8,06.0,0000.0,0007.85,0003.52,0003.03
2022-12-10 20:47:00,,0824.1,4.99,0.00,25.9,24.8,00.0,34.6,27.8,06.0,0000.0,0007.86,0003.49,0002.98
2022-12-10 20:48:00,,0824.1,4.99,0.00,26.0,24.9,00.0,34.6,27.8,06.0,0000.0,0007.86,0003.47,0002.97
2022-12-10 20:49:00,,0824.0,5.00,0.00,26.0,24.9,00.0,34.7,27.8,06.0,0000.0,0007.71,0003.44,0002.96
2022-12-10 20:50:00,,0824.0,5.00,0.00,26.0,24.9,00.0,34.7,27.9,06.0,0000.0,0007.76,0003.46,0002.99
2022-12-10 20:51:00,,0824.0,5.01,0.00,26.0,24.9,00.0,34.7,27.9,06.1,0000.0,0007.62,0003.52,0003.04
2022-12-10 20:52:00,,0824.0,5.01,0.00,26.0,24.9,00.0,34.7,27.9,06.1,0000.0,0007.27,0003.56,0003.11
2022-12-10 20:53:00,,0824.0,4.99,0.00,26.0,24.9,00.0,34.7,27.9,06.2,0000.0,0007.18,0003.60,0003.13
2022-12-10 20:54:00,,0824.0,4.99,0.00,26.1,25.0,00.0,34.7,28.0,06.1,0000.0,0006.76,0003.58,0003.14
2022-12-10 20:55:00,,0824.0,4.99,0.00,26.1,25.0,00.0,34.7,28.0,05.8,0000.0,0006.66,0003.56,0003.13
2022-12-10 20:56:00,,0824.0,5.00,0.00,26.1,25.0,00.0,34.8,28.0,05.8,0000.0,0006.61,0003.52,0003.10
2022-12-10 20:57:00,,0823.9,5.02,0.00,26.1,25.0,00.0,34.8,28.0,05.6,0000.0,0006.76,0003.49,0003.07
2022-12-10 20:58:00,,0824.0,5.01,0.00,26.1,25.0,00.0,34.8,28.0,05.6,0000.0,0006.94,0003.47,0003.04
2022-12-10 20:59:00,,0823.9,4.99,0.00,26.1,25.0,00.0,34.8,28.0,05.6,0000.0,0006.89,0003.45,0003.00
